This demonstration page uses our WeatherBlox Daily Observations layout. Learn more.

Left ArrowRight Arrow

40.97296, -117.73568

Hourly Observations for December 1, 2022

Temp ( °F °C ) Dew Point ( °F °C ) Humidity (%) Winds ( mph kmh ) Pressure ( in mb ) Visibility ( mi km ) Precip ( " mm )
12:56 am 00:56 Clear 38 3.3 18 -7.8 44 44 S 13 20 29.63 1003 10 16 0.00 0.00
1:56 am 01:56 Clear 38 3.3 18 -7.8 44 44 S 14 22 29.61 1003 10 16 0.00 0.00
2:56 am 02:56 Clear 38 3.3 18 -7.8 44 44 S 13 20 29.60 1002 10 16 0.00 0.00
3:56 am 03:56 Clear 39 3.9 18 -7.8 42 42 S 15 24 29.59 1002 10 16 0.00 0.00
4:56 am 04:56 Clear 38 3.3 18 -7.8 44 44 SSW 14 22 29.59 1002 10 16 0.00 0.00
5:56 am 05:56 Clear 36 2.2 18 -7.8 47 47 SSW 12 19 29.60 1002 10 16 0.00 0.00
6:56 am 06:56 Clear 35 1.7 18 -7.8 49 49 SSW 13 20 29.59 1002 10 16 0.00 0.00
7:56 am 07:56 Partly Cloudy 37 2.8 19 -7.2 48 48 S 14 22 29.60 1002 10 16 0.00 0.00
8:56 am 08:56 Mostly Cloudy 44 6.7 20 -6.7 38 38 SSE 16 26 29.61 1003 10 16 0.00 0.00
9:56 am 09:56 Cloudy 48 8.9 21 -6.1 34 34 VRB 5 7 29.59 1002 10 16 0.00 0.00
10:56 am 10:56 Cloudy 52 11.1 22 -5.6 30 30 SSW 22 35 29.57 1001 10 16 0.00 0.00
11:56 am 11:56 Cloudy 50 10 23 -5 34 34 SW 25 41 29.55 1001 10 16 0.00 0.00
12:56 pm 12:56 Cloudy 49 9.4 25 -3.9 39 39 WSW 21 33 29.54 1000 10 16 0.00 0.00
1:56 pm 13:56 Cloudy with Rain 37 2.8 34 1.1 89 89 W 14 22 29.60 1002 5 8 0.01 0.25
2:56 pm 14:56 Mostly Cloudy with Light Rain 37 2.8 34 1.1 89 89 WSW 7 11 29.62 1003 10 16 0.07 1.78
3:56 pm 15:56 Cloudy with Light Snow 37 2.8 32 0 82 82 WSW 13 20 29.63 1004 9 14 0.01 0.13
4:56 pm 16:56 Cloudy with Light Snow 34 1.1 30 -1.1 85 85 WNW 12 19 29.69 1005 5 8 0.01 0.13
5:16 pm 17:16 Cloudy with Light Snow 33 0.6 27 -2.8 78 78 WNW 16 26 29.79 1009 3 4 0.01 0.25
5:25 pm 17:25 Cloudy with Light Snow 32 0 27 -2.8 81 81 WNW 14 22 29.81 1009 1 2 0.02 0.51
5:46 pm 17:46 Cloudy with Light Snow 32 0 28 -2.2 85 85 N 3 6 29.82 1010 1 2 0.04 1.02
5:56 pm 17:56 Cloudy with Light Snow 31 -0.6 29 -1.7 92 92 Calm 29.73 1007 2 2 0.05 1.27
6:09 pm 18:09 Partly Cloudy with Isolated Snow Showers 31 -0.6 29 -1.7 92 92 Calm 29.84 1010 1 2 0.02 0.51
6:14 pm 18:14 Cloudy with Light Snow 31 -0.6 29 -1.7 92 92 SSW 5 7 29.84 1010 1 1 0.03 0.76
6:30 pm 18:30 Cloudy with Light Snow 31 -0.6 28 -2.2 89 89 NE 8 13 29.84 1010 1 2 0.05 1.27
6:37 pm 18:37 Cloudy with Light Snow 31 -0.6 28 -2.2 89 89 NE 5 7 29.85 1011 2 3 0.05 1.27
6:46 pm 18:46 Cloudy with Light Snow 30 -1.1 29 -1.7 96 96 Calm 29.85 1011 7 11 0.06 1.52
6:56 pm 18:56 Cloudy 30 -1.1 29 -1.7 96 96 ENE 6 9 29.75 1007 9 14 0.06 1.52
7:56 pm 19:56 Cloudy 30 -1.1 25 -3.9 81 81 WSW 6 9 29.75 1007 10 16 0.01 0.13
8:56 pm 20:56 Cloudy 30 -1.1 23 -5 75 75 W 7 11 29.79 1009 10 16 0.00 0.00
9:56 pm 21:56 Cloudy 29 -1.7 21 -6.1 72 72 WSW 7 11 29.80 1009 10 16 0.00 0.00
10:56 pm 22:56 Partly Cloudy 28 -2.2 19 -7.2 68 68 W 8 13 29.84 1011 10 16 0.00 0.00
11:56 pm 23:56 Clear 26 -3.3 18 -7.8 71 71 W 12 19 29.89 1012 10 16 0.00 0.00

Powered by AerisWeather